Regional Weather Roundup
Issued by NWS Midland/Odessa, TX

Home | Current Version | Previous Version | Text Only | Print | Product List | Glossary On
Versions: 1 2 3 4 5 6 7 8 9 10 11 12 13 14 15 16 17 18 19 20 21 22 23 24 25 26 27 28 29 30 31 32 33 34 35 36 37 38 39 40 41 42 43 44 45 46 47 48 49 50
000
ASUS44 KMAF 200210
RWRMAF
MIDLAND AREA WEATHER ROUNDUP
NATIONAL WEATHER SERVICE MIDLAND TX
800 PM CST SUN NOV 19 2017

...IN SOUTHWEST TEXAS AND SOUTHEAST NEW MEXICO...

CITY           SKY/WX    TMP DP  RH WIND       PRES   REMARKS
ALPINE         CLOUDY    44  24  45 S5        30.21R
ANDREWS        FAIR      40  19  42 SE5       30.19S WCI  37
ARTESIA        CLOUDY    43  18  36 S9        30.15R WCI  37
BIG SPRING     CLOUDY    43  23  44 E7        30.21S WCI  39
CARLSBAD       CLEAR     39  24  55 SW6       30.15R WCI  35
DRYDEN           N/A     47  24  40 E6        30.18F
FORT STOCKTON  CLOUDY    49  22  34 SE13      30.16F
GUAD PASS      CLEAR     42  14  32 NE20      30.18R WCI  33
HOBBS          CLOUDY    36  18  48 S7        30.17S WCI  30
LAMESA         FAIR      41  19  42 S6        30.19F WCI  37
MARFA          CLEAR     42  23  46 CALM      30.18R
MIDLAND AIRPK  CLOUDY    46  22  38 CALM      30.19S
MIDLAND INTL   CLOUDY    46  18  32 S6        30.18S
ODESSA         CLOUDY    45  20  36 SE6       30.19R
PECOS          CLEAR     48  23  37 E8        30.16R
PRESIDIO       FAIR      57  26  30 NE10      30.15R
SEMINOLE       CLOUDY    38  16  40 S6        30.19S WCI  34
SNYDER         CLOUDY    46  21  37 S8        30.20S
WINK           CLOUDY    44  20  38 E6        30.16R
$$
...OTHER STATIONS IN TEXAS...

CITY           SKY/WX    TMP DP  RH WIND       PRES   REMARKS
ABILENE        CLEAR     41  31  67 S7        30.21S WCI  36
AMARILLO       CLOUDY    45  15  30 S16       30.11S WCI  38
AUSTIN         PTCLDY    44  37  76 CALM      30.25R
BROWNSVILLE    PTCLDY    61  48  62 NW8       30.24R
CORPUS CHRISTI MOCLDY    57  36  45 NE8       30.23S
DALLAS FTW     CLEAR     52  29  41 S3        30.22S
DEL RIO        PTCLDY    54  32  43 SE5       30.22R
EL PASO        CLEAR     54  14  20 NE5       30.12R
HOUSTON INT    MOCLDY    50  38  63 CALM      30.25R
LUBBOCK        CLOUDY    44  15  31 S10       30.15F WCI  39
SAN ANGELO     CLOUDY    41  26  55 S6        30.21S WCI  37
SAN ANTONIO    CLOUDY    54  31  41 CALM      30.24S
WACO           CLEAR     44  34  67 CALM      30.25R
WICHITA FALLS  CLOUDY    47  25  42 S13       30.08F
$$
...OTHER LOCATIONS IN NEW MEXICO...

CITY           SKY/WX    TMP DP  RH WIND       PRES   REMARKS
ALAMOGORDO     CLEAR     46  16  29 N7        30.14F
ALBUQUERQUE    CLOUDY    40   0  18 E7        30.16R WCI  35
CANNON AFB     CLOUDY    43  12  27 S13       30.13F WCI  37
CLOVIS         CLOUDY    39  14  36 S9        30.13S WCI  33
HOLLOMAN AFB   CLEAR     42  14  32 N8        30.16S WCI  36
ROSWELL        CLOUDY    37  15  40 SW8       30.15R WCI  31
RUIDOSO        CLOUDY    39  10  30 NW5       30.20S WCI  36
SANTA FE       CLOUDY    37  10  32 NW6       30.16R WCI  32
TRUTH OR CONSE CLEAR     48   8  19 CALM      30.14R
TUCUMCARI      CLOUDY    47  13  25 CALM      30.06S
$$




USA.gov is the U.S. government's official web portal to all federal, state and local government web resources and services.